Regional Weather Roundup
Issued by NWS

Home | Current Version | Previous Version | Text Only | Print | Product List | Glossary Off
Versions: 1 2 3 4 5 6 7 8 9 10 11 12 13 14 15 16 17 18 19 20 21 22 23 24 25 26 27 28 29 30 31 32 33 34 35 36 37 38 39 40 41 42 43 44 45 46 47 48 49 50

000
ASUS45 KPSR 192310
RWRAZ

ARIZONA REGIONAL HOURLY WEATHER ROUNDUP
NATIONAL WEATHER SERVICE PHOENIX AZ
400 PM MST FRI SEP 19 2014

NOTE: FAIR INDICATES FEW OR NO CLOUDS BELOW 12,000 FEET WITH NO
SIGNIFICANT WEATHER AND/OR OBSTRUCTIONS TO VISIBILITY.

AZZ001>003-036-200000-
NORTHWEST ARIZONA

CITY           SKY/WX    TMP DP  RH WIND       PRES   REMARKS
BULLHEAD CITY  SUNNY     99  39  12 S15G22    29.73F
KINGMAN        SUNNY     89  42  19 SW16      29.93S
$$

AZZ004>008-015-016-018-200000-
NORTH CENTRAL ARIZONA

CITY           SKY/WX    TMP DP  RH WIND       PRES   REMARKS
GRAND CANYON   PTSUNNY   69  61  75 CALM      30.15F
PRESCOTT       PTSUNNY   82  50  32 NW7       30.03F
FLAGSTAFF      PTSUNNY   70  58  65 VRB5      30.18F
PAYSON         MOSUNNY   81  59  47 W9        30.05S
PAGE           MOSUNNY   92  46  20 N6        29.94F
$$

AZZ009>014-017-200000-
NORTHEAST ARIZONA

CITY           SKY/WX    TMP DP  RH WIND       PRES   REMARKS
WINSLOW        MOSUNNY   86  48  26 CALM      29.99F
SAINT JOHNS    SUNNY     84  49  29 VRB3      30.02F
WINDOW ROCK    CLOUDY    75  46  35 N3        30.13F
SHOW LOW       MOSUNNY   75  45  33 NE6       30.11F
$$

AZZ023-200000-
GREATER PHOENIX AREA

CITY           SKY/WX    TMP DP  RH WIND       PRES   REMARKS
PHOENIX        MOSUNNY   97  58  27 NW12      29.74F
BUCKEYE          N/A     95  57  28 S5        29.75F
GLENDALE       MOSUNNY   97  63  32 S7        29.76F
LUKE AFB       SUNNY     97  60  28 SW8       29.74F
DEER VALLEY    SUNNY     94  61  33 VRB3      29.76F
SCOTTSDALE     SUNNY     95  60  31 CALM      29.78F
MESA-GATEWAY   MOSUNNY   95  66  38 NW5       29.77F
CHANDLER       PTSUNNY   95  64  36 W8        29.76F
$$

AZZ027-028-200000-
SOUTHWEST MARICOPA COUNTY AND PINAL COUNTY

CITY           SKY/WX    TMP DP  RH WIND       PRES   REMARKS
CASA GRANDE    SUNNY     95  57  28 W8        29.78F
GILA BEND      PTCLDY    97  57  26 VRB3      29.75F
$$

AZZ503-504-507>509-200000-
SOUTHEAST ARIZONA

CITY           SKY/WX    TMP DP  RH WIND       PRES   REMARKS
TUCSON         CLOUDY    88  65  46 NW8       29.87F
DAVIS-MONTHAN  SUNNY     87  62  43 VRB1      29.85F
RYAN FIELD       N/A     88  70  55 W5        29.87F
NOGALES        PTSUNNY   82  63  52 W7        29.95F
SIERRA VISTA   PTSUNNY   75  64  69 W10       30.01S
DOUGLAS        MOSUNNY   85  62  46 N7        29.96F
SAFFORD        MOSUNNY   87  62  43 W7        29.86F
$$

AZZ020-021-025-026-031-200000-
SOUTHWEST ARIZONA

CITY           SKY/WX    TMP DP  RH WIND       PRES   REMARKS
YUMA           MOSUNNY   98  48  18 SW5       29.70F
$$

CAZ031-033-041-043-047-048-061-200000-
SOUTHERN CALIFORNIA

CITY           SKY/WX    TMP DP  RH WIND       PRES   REMARKS
DOWNTOWN L.A.  SUNNY     78  61  55 VRB5      29.83F
L.A. AIRPORT   MOSUNNY   73  60  63 W13G20    29.85S
SAN DIEGO      MOSUNNY   75  61  61 NW12G18   29.85F
BURBANK        SUNNY     80  58  46 S10       29.83F
ONTARIO        MOSUNNY   86  57  37 SW15      29.82F
RIVERSIDE      SUNNY     84  59  42 W9        29.82F
PALM SPRINGS   MOSUNNY   98  48  18 VRB5      29.74F
EL CENTRO NAS  MOSUNNY   98  53  22 E5        29.69F
IMPERIAL       SUNNY     98  53  22 VRB3      29.69F
BLYTHE         SUNNY     97  53  22 VRB3      29.72F
NEEDLES        SUNNY    101  42  13 SW10      29.74F
$$

NVZ020-UTZ003-200000-
SOUTHERN NEVADA-UTAH

CITY           SKY/WX    TMP DP  RH WIND       PRES   REMARKS
LAS VEGAS      MOSUNNY   96  35  11 S14G20    29.77F
SALT LAKE CITY MOSUNNY   82  53  36 NW8       30.01S
$$

NMZ009-TXZ055-200000-
NEW MEXICO-WEST TEXAS

CITY           SKY/WX    TMP DP  RH WIND       PRES   REMARKS
ALBUQUERQUE    MOSUNNY   81  53  37 VRB3      30.02S
EL PASO        MOSUNNY   82  62  50 NW9       29.93F
$$


........................KEY........................
SKY/WX - SKY CONDITION/WEATHER
TMP    - TEMPERATURE IN FAHRENHEIT
DP     - DEW POINT IN FAHRENHEIT
RH     - RELATIVE HUMIDITY IN PERCENT
WIND   - DIRECTION AND SPEED IN MILES PER HOUR (MPH)
VRB    - VARIABLE WIND DIRECTION
PRES   - MEAN SEA LEVEL PRESSURE IN INCHES OF MERCURY
         F - FALLING PRESSURE   R - RISING PRESSURE
         S - STEADY PRESSURE
VSB    - VISIBILITY IN MILES
HX     - HEAT INDEX IN FAHRENHEIT
WCI    - WIND CHILL INDEX IN FAHRENHEIT
TC     - TEMPERATURE IN CELSIUS WHICH IS ALSO KNOWN AS
         TEMPERATURE IN CENTIGRADE
AFB    - AIR FORCE BASE
         LUKE AFB IS LUKE AIR FORCE BASE
         DAVIS-MONTHAN IS DAVIS-MONTHAN AIR FORCE BASE
NAS    - NAVAL AIR STATION
         EL CENTRO NAS IS EL CENTRO NAVAL AIR STATION
N/A    - NOT AVAILABLE



USA.gov is the U.S. government's official web portal to all federal, state and local government web resources and services.